******** Week 358 almanac for PRN-1 ******** ID: 1 Health: 0 Eccentricity: 0.001530647278 Time of Applicability(s): 405504 Orbital Inclination(rad): 0.9584108231 Rate of Right Ascen(r/s): -7.806039438e-09 SQRT(A) (m 1/2): 5153.581543 Right Ascen at Week(rad): -2.89717289 Argument of Perigee(rad): 0.05220178568 Mean Anom(rad): 0.1152710163 Af0(s): 0.0002607713135 Af1(s/s): -7.275958e-12 week: 358 ******** Week 358 almanac for PRN-2 ******** ID: 2 Health: 0 Eccentricity: 0.01693582535 Time of Applicability(s): 405504 Orbital Inclination(rad): 0.9637318189 Rate of Right Ascen(r/s): -7.760323248e-09 SQRT(A) (m 1/2): 5153.552734 Right Ascen at Week(rad): -3.059665497 Argument of Perigee(rad): -0.8212208845 Mean Anom(rad): 1.551407724 Af0(s): 3.316166992e-05 Af1(s/s): 7.275958e-12 week: 358 ******** Week 358 almanac for PRN-3 ******** ID: 3 Health: 0 Eccentricity: 0.006445884705 Time of Applicability(s): 405504 Orbital Inclination(rad): 0.9929972962 Rate of Right Ascen(r/s): -7.680319916e-09 SQRT(A) (m 1/2): 5153.588379 Right Ascen at Week(rad): -1.91066183 Argument of Perigee(rad): 1.203781312 Mean Anom(rad): -2.050269811 Af0(s): 0.0004461751953 Af1(s/s): -1.091394e-11 week: 358 ******** Week 358 almanac for PRN-4 ******** ID: 4 Health: 0 Eccentricity: 0.0037317276 Time of Applicability(s): 405504 Orbital Inclination(rad): 0.970448977 Rate of Right Ascen(r/s): -8.160339911e-09 SQRT(A) (m 1/2): 5153.680176 Right Ascen at Week(rad): -0.8395402703 Argument of Perigee(rad): -2.884947108 Mean Anom(rad): 0.947903879 Af0(s): 3.542269287e-05 Af1(s/s): 3.637979e-12 week: 358 ******** Week 358 almanac for PRN-5 ******** ID: 5 Health: 0 Eccentricity: 0.005386352539 Time of Applicability(s): 405504 Orbital Inclination(rad): 0.9795809564 Rate of Right Ascen(r/s): -7.794610391e-09 SQRT(A) (m 1/2): 5153.651855 Right Ascen at Week(rad): -1.970273612 Argument of Perigee(rad): 1.418927361 Mean Anom(rad): 1.60136434 Af0(s): -0.0001808818359 Af1(s/s): 0 week: 358 ******** Week 358 almanac for PRN-6 ******** ID: 6 Health: 0 Eccentricity: 0.003872871399 Time of Applicability(s): 405504 Orbital Inclination(rad): 0.9873167736 Rate of Right Ascen(r/s): -7.508884204e-09 SQRT(A) (m 1/2): 5153.589355 Right Ascen at Week(rad): -2.946937009 Argument of Perigee(rad): -0.5831231726 Mean Anom(rad): -0.711905279 Af0(s): -0.0004831052368 Af1(s/s): 0 week: 358 ******** Week 358 almanac for PRN-7 ******** ID: 7 Health: 0 Eccentricity: 0.02040576935 Time of Applicability(s): 405504 Orbital Inclination(rad): 0.951370091 Rate of Right Ascen(r/s): -7.817468486e-09 SQRT(A) (m 1/2): 5153.58252 Right Ascen at Week(rad): 0.1690109024 Argument of Perigee(rad): -1.995797015 Mean Anom(rad): -1.590976264 Af0(s): -0.000119080542 Af1(s/s): -3.637979e-12 week: 358 ******** Week 358 almanac for PRN-8 ******** ID: 8 Health: 0 Eccentricity: 0.01154470444 Time of Applicability(s): 405504 Orbital Inclination(rad): 0.9434545104 Rate of Right Ascen(r/s): -8.434637051e-09 SQRT(A) (m 1/2): 5153.617676 Right Ascen at Week(rad): 2.216750544 Argument of Perigee(rad): 0.5192877006 Mean Anom(rad): 1.242363026 Af0(s): 0.0003866349243 Af1(s/s): -3.637979e-12 week: 358 ******** Week 358 almanac for PRN-9 ******** ID: 9 Health: 0 Eccentricity: 0.003371238708 Time of Applicability(s): 405504 Orbital Inclination(rad): 0.9645587305 Rate of Right Ascen(r/s): -8.251772291e-09 SQRT(A) (m 1/2): 5153.725098 Right Ascen at Week(rad): -0.9037187908 Argument of Perigee(rad): 2.072094957 Mean Anom(rad): 1.835811358 Af0(s): 0.0006082151733 Af1(s/s): 0 week: 358 ******** Week 358 almanac for PRN-10 ******** ID: 10 Health: 0 Eccentricity: 0.01094293594 Time of Applicability(s): 405504 Orbital Inclination(rad): 0.9925359035 Rate of Right Ascen(r/s): -7.714607058e-09 SQRT(A) (m 1/2): 5153.60498 Right Ascen at Week(rad): -1.913170278 Argument of Perigee(rad): -2.257532862 Mean Anom(rad): -3.035649485 Af0(s): -0.0004650170532 Af1(s/s): 0 week: 358 ******** Week 358 almanac for PRN-11 ******** ID: 11 Health: 0 Eccentricity: 0.002222537994 Time of Applicability(s): 405504 Orbital Inclination(rad): 0.9641752353 Rate of Right Ascen(r/s): -7.737465153e-09 SQRT(A) (m 1/2): 5153.524902 Right Ascen at Week(rad): -2.927906435 Argument of Perigee(rad): -2.292534663 Mean Anom(rad): 0.3402096748 Af0(s): -0.0003421681396 Af1(s/s): 1.455192e-11 week: 358 ******** Week 358 almanac for PRN-12 ******** ID: 12 Health: 0 Eccentricity: 0.009050369263 Time of Applicability(s): 405504 Orbital Inclination(rad): 0.9589201526 Rate of Right Ascen(r/s): -7.977475151e-09 SQRT(A) (m 1/2): 5153.728516 Right Ascen at Week(rad): 1.286607287 Argument of Perigee(rad): 1.557095362 Mean Anom(rad): -2.238092951 Af0(s): -0.0004800905395 Af1(s/s): 0 week: 358 ******** Week 358 almanac for PRN-13 ******** ID: 13 Health: 0 Eccentricity: 0.009966850281 Time of Applicability(s): 405504 Orbital Inclination(rad): 0.9761594602 Rate of Right Ascen(r/s): -8.091765626e-09 SQRT(A) (m 1/2): 5153.616699 Right Ascen at Week(rad): -0.7287408679 Argument of Perigee(rad): 0.9979159221 Mean Anom(rad): 0.9884011965 Af0(s): 0.0005418918335 Af1(s/s): 0 week: 358 ******** Week 358 almanac for PRN-14 ******** ID: 14 Health: 0 Eccentricity: 0.00666475296 Time of Applicability(s): 405504 Orbital Inclination(rad): 0.9422980327 Rate of Right Ascen(r/s): -8.160339911e-09 SQRT(A) (m 1/2): 5153.59668 Right Ascen at Week(rad): 1.232128873 Argument of Perigee(rad): -2.755600994 Mean Anom(rad): -2.40485756 Af0(s): 0.0005810828979 Af1(s/s): 3.637979e-12 week: 358 ******** Week 358 almanac for PRN-15 ******** ID: 15 Health: 0 Eccentricity: 0.01660585403 Time of Applicability(s): 405504 Orbital Inclination(rad): 0.9423639459 Rate of Right Ascen(r/s): -8.526069431e-09 SQRT(A) (m 1/2): 5153.625488 Right Ascen at Week(rad): -1.047527617 Argument of Perigee(rad): 1.499678566 Mean Anom(rad): 0.2431973741 Af0(s): 0.0003059917725 Af1(s/s): 3.637979e-12 week: 358 ******** Week 358 almanac for PRN-16 ******** ID: 16 Health: 0 Eccentricity: 0.01505041122 Time of Applicability(s): 405504 Orbital Inclination(rad): 0.9580453042 Rate of Right Ascen(r/s): -8.034620388e-09 SQRT(A) (m 1/2): 5153.589355 Right Ascen at Week(rad): 1.303609531 Argument of Perigee(rad): 0.9287512151 Mean Anom(rad): 2.262269252 Af0(s): 0.0001665620239 Af1(s/s): 7.275958e-12 week: 358 ******** Week 358 almanac for PRN-17 ******** ID: 17 Health: 0 Eccentricity: 0.01268959045 Time of Applicability(s): 405504 Orbital Inclination(rad): 0.9592017819 Rate of Right Ascen(r/s): -8.286059433e-09 SQRT(A) (m 1/2): 5153.524414 Right Ascen at Week(rad): 2.321294556 Argument of Perigee(rad): -1.125085776 Mean Anom(rad): 1.162559698 Af0(s): -5.275720215e-05 Af1(s/s): -1.091394e-11 week: 358 ******** Week 358 almanac for PRN-18 ******** ID: 18 Health: 0 Eccentricity: 0.005732536316 Time of Applicability(s): 405504 Orbital Inclination(rad): 0.9722645871 Rate of Right Ascen(r/s): -7.680319916e-09 SQRT(A) (m 1/2): 5153.597656 Right Ascen at Week(rad): -2.951810095 Argument of Perigee(rad): -2.860760695 Mean Anom(rad): -0.8240847398 Af0(s): -0.0003323703735 Af1(s/s): 1.091394e-11 week: 358 ******** Week 358 almanac for PRN-19 ******** ID: 19 Health: 0 Eccentricity: 0.01108598709 Time of Applicability(s): 405504 Orbital Inclination(rad): 0.9584108231 Rate of Right Ascen(r/s): -8.263201338e-09 SQRT(A) (m 1/2): 5153.65625 Right Ascen at Week(rad): 2.365198015 Argument of Perigee(rad): 2.926813623 Mean Anom(rad): 2.990646474 Af0(s): 0.0005456602051 Af1(s/s): 0 week: 358 ******** Week 358 almanac for PRN-20 ******** ID: 20 Health: 255 Eccentricity: 0.000301361084 Time of Applicability(s): 405504 Orbital Inclination(rad): 0.9599867487 Rate of Right Ascen(r/s): -8.297488481e-09 SQRT(A) (m 1/2): 5153.632812 Right Ascen at Week(rad): -0.8980532484 Argument of Perigee(rad): 1.323632924 Mean Anom(rad): 0.6861781441 Af0(s): 0 Af1(s/s): 0 week: 358 ******** Week 358 almanac for PRN-21 ******** ID: 21 Health: 0 Eccentricity: 0.0006957054138 Time of Applicability(s): 405504 Orbital Inclination(rad): 0.9624135542 Rate of Right Ascen(r/s): -8.023191341e-09 SQRT(A) (m 1/2): 5153.706543 Right Ascen at Week(rad): -1.904074252 Argument of Perigee(rad): -0.3704919386 Mean Anom(rad): -2.491731955 Af0(s): 0.0003165432129 Af1(s/s): 3.637979e-12 week: 358 ******** Week 358 almanac for PRN-22 ******** ID: 22 Health: 0 Eccentricity: 0.01211929321 Time of Applicability(s): 405504 Orbital Inclination(rad): 0.9574820457 Rate of Right Ascen(r/s): -8.057478483e-09 SQRT(A) (m 1/2): 5153.573242 Right Ascen at Week(rad): 1.306960245 Argument of Perigee(rad): -0.9947749316 Mean Anom(rad): 1.81184141 Af0(s): -3.542269287e-05 Af1(s/s): 3.637979e-12 week: 358 ******** Week 358 almanac for PRN-23 ******** ID: 23 Health: 0 Eccentricity: 0.006017208099 Time of Applicability(s): 405504 Orbital Inclination(rad): 0.9875384817 Rate of Right Ascen(r/s): -7.737465153e-09 SQRT(A) (m 1/2): 5153.657227 Right Ascen at Week(rad): -1.945213474 Argument of Perigee(rad): -2.740716587 Mean Anom(rad): -1.947046312 Af0(s): 0.0004853662598 Af1(s/s): 3.637979e-12 week: 358 ******** Week 358 almanac for PRN-24 ******** ID: 24 Health: 0 Eccentricity: 0.01787757874 Time of Applicability(s): 405504 Orbital Inclination(rad): 0.9353651586 Rate of Right Ascen(r/s): -8.046049436e-09 SQRT(A) (m 1/2): 5153.601074 Right Ascen at Week(rad): 0.06075927128 Argument of Perigee(rad): 1.134075817 Mean Anom(rad): -0.6098573568 Af0(s): -9.044091797e-05 Af1(s/s): 1.455192e-11 week: 358 ******** Week 358 almanac for PRN-25 ******** ID: 25 Health: 0 Eccentricity: 0.01294660568 Time of Applicability(s): 405504 Orbital Inclination(rad): 0.9473314072 Rate of Right Ascen(r/s): -8.068907531e-09 SQRT(A) (m 1/2): 5153.67627 Right Ascen at Week(rad): 1.192874918 Argument of Perigee(rad): 1.156762329 Mean Anom(rad): -2.379858841 Af0(s): 0.0003497048828 Af1(s/s): -3.637979e-12 week: 358 ******** Week 358 almanac for PRN-26 ******** ID: 26 Health: 0 Eccentricity: 0.01099395752 Time of Applicability(s): 405504 Orbital Inclination(rad): 0.9281506552 Rate of Right Ascen(r/s): -8.240343243e-09 SQRT(A) (m 1/2): 5153.655762 Right Ascen at Week(rad): 1.118529281 Argument of Perigee(rad): 0.708871772 Mean Anom(rad): 3.081207891 Af0(s): -0.0002600176392 Af1(s/s): -7.275958e-12 week: 358 ******** Week 358 almanac for PRN-27 ******** ID: 27 Health: 0 Eccentricity: 0.01432704926 Time of Applicability(s): 405504 Orbital Inclination(rad): 0.9525745056 Rate of Right Ascen(r/s): -8.331775623e-09 SQRT(A) (m 1/2): 5153.604004 Right Ascen at Week(rad): 2.248688504 Argument of Perigee(rad): 0.8779324838 Mean Anom(rad): 1.340516824 Af0(s): -3.617636719e-05 Af1(s/s): -1.091394e-11 week: 358 ******** Week 358 almanac for PRN-28 ******** ID: 28 Health: 0 Eccentricity: 0.0004019737244 Time of Applicability(s): 405504 Orbital Inclination(rad): 0.9623176804 Rate of Right Ascen(r/s): -7.726036106e-09 SQRT(A) (m 1/2): 5153.745117 Right Ascen at Week(rad): 0.1431515666 Argument of Perigee(rad): 0.1023752413 Mean Anom(rad): -1.350429651 Af0(s): -0.0004680317505 Af1(s/s): 7.275958e-12 week: 358 ******** Week 358 almanac for PRN-29 ******** ID: 29 Health: 0 Eccentricity: 0.00334072113 Time of Applicability(s): 405504 Orbital Inclination(rad): 0.9618622799 Rate of Right Ascen(r/s): -8.217485148e-09 SQRT(A) (m 1/2): 5153.706055 Right Ascen at Week(rad): 2.33798521 Argument of Perigee(rad): 2.740184787 Mean Anom(rad): 1.211318641 Af0(s): -0.0002946866577 Af1(s/s): 7.275958e-12 week: 358 ******** Week 358 almanac for PRN-30 ******** ID: 30 Health: 0 Eccentricity: 0.008020877838 Time of Applicability(s): 405504 Orbital Inclination(rad): 0.9366294943 Rate of Right Ascen(r/s): -7.966046103e-09 SQRT(A) (m 1/2): 5153.717285 Right Ascen at Week(rad): 0.1601755325 Argument of Perigee(rad): -2.327311386 Mean Anom(rad): -1.743322353 Af0(s): 0.0001002386841 Af1(s/s): 1.455192e-11 week: 358 ******** Week 358 almanac for PRN-31 ******** ID: 31 Health: 0 Eccentricity: 0.01081514359 Time of Applicability(s): 405504 Orbital Inclination(rad): 0.9551391297 Rate of Right Ascen(r/s): -7.771752296e-09 SQRT(A) (m 1/2): 5153.730469 Right Ascen at Week(rad): 0.1931718488 Argument of Perigee(rad): 0.938338595 Mean Anom(rad): -2.688711792 Af0(s): -0.0001311393311 Af1(s/s): 3.637979e-12 week: 358 ******** Week 358 almanac for PRN-32 ******** ID: 32 Health: 0 Eccentricity: 0.009319782257 Time of Applicability(s): 405504 Orbital Inclination(rad): 0.9676206999 Rate of Right Ascen(r/s): -8.194627053e-09 SQRT(A) (m 1/2): 5153.669434 Right Ascen at Week(rad): -0.8867491283 Argument of Perigee(rad): -2.005451806 Mean Anom(rad): 1.926379141 Af0(s): -6.707701416e-05 Af1(s/s): 1.818989e-11 week: 358